Regional Weather Roundup
Issued by NWS

Home | Current Version | Previous Version | Text Only | Print | Product List | Glossary On
Versions: 1 2 3 4 5 6 7 8 9 10 11 12 13 14 15 16 17 18 19 20 21 22 23 24 25 26 27
000
ASUS45 KBOU 081907
RWRCO

WEATHER ROUNDUP FOR COLORADO
NATIONAL WEATHER SERVICE DENVER/BOULDER CO
1200 PM MST THU DEC 08 2016

NOTE: "FAIR" INDICATES FEW OR NO CLOUDS BELOW 12000 FEET WITH NO
SIGNIFICANT WEATHER AND/OR OBSTRUCTIONS TO VISIBILITY.

COZ001>005-013-030-031-082000-
...NORTHWEST COLORADO...

CITY           SKY/WX    TMP DP  RH WIND       PRES   REMARKS
CRAIG          CLOUDY    18   2  49 NE6       30.26F WCI  10
HAYDEN         CLOUDY    10  -2  56 SE8       30.25F WCI  -1
MEEKER         CLOUDY    14   4  64 S3        30.25F
MOUNT WERNER   NOT AVBL
STEAMBOAT SPGS FAIR       7  -4  60 CALM      30.24F
WALDEN           N/A      0  -6  78 NW3       30.18F
$$

COZ006>008-011-082000-
...WEST CENTRAL VALLEYS...

CITY           SKY/WX    TMP DP  RH WIND       PRES   REMARKS
GRAND JUNCTION CLOUDY    26   6  42 SE5       30.33F WCI  20
MONTROSE       CLOUDY    26   7  44 S3        30.33F
EAGLE          CLOUDY    16  -2  45 CALM      30.33F
RIFLE          CLOUDY    20   4  50 E5        30.33F WCI  13
DELTA          NOT AVBL
NUCLA          PTSUNNY   27   1  33 CALM      30.32F
$$

COZ017>023-064>068-082000-
...SOUTHWEST COLORADO...

CITY           SKY/WX    TMP DP  RH WIND       PRES   REMARKS
DURANGO        CLOUDY    31  -2  24 SE6       30.30F WCI  25
CORTEZ         CLOUDY    35   6  29 VRB5      30.30F WCI  31
PAGOSA SPRINGS CLOUDY    28  -5  23 S6        30.29F WCI  22
TELLURIDE      CLOUDY    27  -5  24 SE6       30.22F WCI  21
WOLF CREEK PAS FAIR      10  -8  44 S15G24    30.22S WCI  -6
$$

COZ009-010-012-014-032>034-037-058>063-082000-
...CENTRAL COLORADO...

CITY           SKY/WX    TMP DP  RH WIND       PRES   REMARKS
ASPEN          NOT AVBL
BUENA VISTA    CLOUDY    22  -1  35 SE3       30.17F
COPPER MTN     CLOUDY    14  -2  48 MISG      30.05F
BERTHOUD PASS  CLOUDY     3  -8  60 W18G29    30.00F WCI -17
COTTONWOOD PAS PTSUNNY   21  -4  33 SE6       30.11F WCI  14
GUNNISON       PTSUNNY   12  -1  56 CALM      30.31F
KREMMLING      PTSUNNY  N/A N/A N/A CALM      30.29F
LEADVILLE      CLOUDY    16  -1  47 N9        30.09F WCI   4
MONARCH PASS   CLOUDY     7  -8  51 W32       30.20F WCI -17
SALIDA         CLOUDY    19   3  50 E5        30.27F WCI  12
SUNLIGHT       CLOUDY    10   7  85 SW14G25   30.16F WCI  -5
WILKERSON PASS FAIR      12  -2  52 SW17G24   30.06F WCI  -5
$$

COZ069>075-082000-
...SAN LUIS VALLEY/SANGRE DE CRISTO MOUNTAINS...

CITY           SKY/WX    TMP DP  RH WIND       PRES   REMARKS
ALAMOSA        FAIR      22   4  46 W5        30.26F WCI  16
LA VETA PASS   FAIR      19   9  63 NE22G36   30.12F WCI   3
SAGUACHE       CLOUDY    23   1  39 S8        30.26F WCI  14
$$

COZ035-036-038>040-082000-
...NORTHERN COLORADO FRONT RANGE...

CITY           SKY/WX    TMP DP  RH WIND       PRES   REMARKS
DENVER INTL AP FAIR      14   5  67 CALM      30.33F
DMNS CITY PARK   N/A     18   3  52 E7        30.33F WCI   8
AURORA         MOSUNNY   13   5  70 N5        30.31F WCI   5
FRONT RANGE AP MOSUNNY   16   9  73 CALM      30.33F
ERIE MUNI ARPT FAIR      11   9  90 N6        30.37F WCI   1
BOULDER MUN AP FAIR      14   5  67 CALM      30.35F
CENTENNIAL     PTSUNNY   15   5  64 CALM      30.28F
BROOMFIELD     PTSUNNY   14   7  73 E3        30.32F
FORT COLLINS   FAIR      10   1  67 S5        30.38F WCI   2
LONGMONT       FAIR      18   4  55 CALM      30.39F
$$

COZ041-046-047-076>085-087-088-082000-
...PIKES PEAK/PALMER DIVIDE AND SOUTHERN FOOTHILLS...

CITY           SKY/WX    TMP DP  RH WIND       PRES   REMARKS
COLO. SPRINGS  LGT SNOW  11   6  81 S12       30.33F VSB 3/4 WCI  -3
A. F. ACADEMY  CLOUDY    10   3  72 S14       30.28F WCI  -6
SCHRIEVER AFB  NOT AVBL
ELLICOTT       LGT RAIN N/A N/A N/A S9          N/A
FALCON         LGT SNOW  10   3  75 S13       30.28F WCI  -5
FORT CARSON    LGT SNOW  12   6  76 S13       30.33F WCI  -2
LIMON          PTSUNNY   17  10  74 S13       30.37F WCI   4
MONUMENT HILL  FAIR      12   3  67 S20G25    30.23F WCI  -6
TRINIDAD       FAIR      21   7  54 E6        30.34  WCI  13
$$

COZ042>045-048>051-090-091-082000-
...NORTHEAST COLORADO...

CITY           SKY/WX    TMP DP  RH WIND       PRES   REMARKS
GREELEY ARPT   FAIR       7   1  76 CALM      30.43F
AKRON          FAIR      12   0  58 SE9       30.43F WCI   0
BURLINGTON     FAIR      17   1  49 NE6       30.49F WCI   9
WRAY           NOT AVBL
STERLING       FAIR      10   1  67 SW5       30.48F WCI   2
HOLYOKE        FAIR      19   3  49 NE5       30.52F WCI  13
FORT MORGAN    FAIR      10   0  63 CALM      30.44F
$$

COZ086-089-092>099-082000-
...SOUTHEAST COLORADO...

CITY           SKY/WX    TMP DP  RH WIND       PRES   REMARKS
PUEBLO         CLOUDY    20   8  60 S13       30.42F WCI   7
LA JUNTA       FAIR      22   3  44 SE12      30.47F WCI  10
LAMAR          FAIR      20   1  43 SE6       30.52F WCI  12
SPRINGFIELD      N/A     21   0  39 VRB6      30.47F WCI  13
$$




USA.gov is the U.S. government's official web portal to all federal, state and local government web resources and services.